"Pseudo-MPEC" for xkos465

Created 2024 Sep 8 19:22:31 UT using Find_Orb

Click here for an explanation of pseudo-MPECs

 
 Astrometry: 
     xkos465*KB2024 09 06.02851 23 24 04.303-35 49 18.08   ~96A7 19.7 GXNEOCPL87
     xkos465 KB2024 09 06.03524 23 24 09.326-35 48 53.46   ~96A7 19.4 GXNEOCPL87
     xkos465 KB2024 09 06.04197 23 24 14.417-35 48 30.17   ~96A7 20.7 GXNEOCPL87
     xkos465 KB2024 09 06.99943 23 36 58.651-34 51 19.30   ~973q 18.5 GXNEOCPL87
     xkos465 KB2024 09 07.00545 23 37 03.002-34 50 55.97   ~973q 19.8 GXNEOCPL87
     xkos465 KB2024 09 07.01117 23 37 07.178-34 50 33.40   ~973q 19.5 GXNEOCPL87
     xkos465 KC2024 09 07.87058923 48 24.67 -33 53 33.7    ~98Ab 19.7 GVNEOCPM21
     xkos465 KC2024 09 07.90168023 48 47.18 -33 51 31.9    ~98Ab 19.5 GVNEOCPM21
     xkos465 KB2024 09 07.91340 23 48 55.673-33 50 45.42   ~982b 20.0 GXNEOCPL87
     xkos465 KB2024 09 07.91855 23 48 59.311-33 50 24.32   ~982b 20.1 GXNEOCPL87
     xkos465 KB2024 09 07.92370 23 49 02.990-33 50 04.81   ~982b 20.2 GXNEOCPL87
     xkos465 |C2024 09 08.17544223 52 15.200-33 32 16.20   ~9867 20.4 GVNEOCP807
     xkos465 |C2024 09 08.17809023 52 17.090-33 32 05.30   ~9867 20.3 GVNEOCP807
     xkos465 |C2024 09 08.18088323 52 19.060-33 31 53.80   ~9867 20.2 GVNEOCP807
     xkos465  C2024 09 08.45420623 55 44.839-33 13 59.38   ~98CM 20.18wXNEOCPF51
     xkos465  C2024 09 08.46256623 55 50.673-33 13 23.12   ~98CM 20.00wXNEOCPF51

Station data:
(807) Cerro Tololo Observatory, La Serena  (S30.169133 W70.805900)  Chile.
   Observer R. Holmes. 0.61-m f/6.5 astrograph + CCD.
(F51) Pan-STARRS 1, Haleakala  (N20.707234 W156.255910)  US/Hawaii.
   Observers J. Bulger, T. Lowe, A. Schultz, M. Willman. Measurers K.
   Chambers, S. Chastel, T. de Boer, L. Denneau, J. Fairlamb, H. Flewelling,
   M. Huber, C.-C. Lin, E. Magnier, Y. Ramanjooloo, R. Wainscoat, R. Weryk.
   1.8-m Ritchey-Chrétien + CCD.
(L87) Moonbase South Observatory, Hakos  (S23.236420 E16.361890)  Namibia.
   Observer G. Duszanowicz. 0.36-m f/7.7 reflector + CCD.
(M21) Schiaparelli Southern Observatory, Hakos  (S23.236549 E16.361440)
   Namibia.  Observers A. Aletti, F. Bellini, L. Buzzi, G. Galli. Measurer L.
   Buzzi. 0.36-m f/8.4 reflector + CCD.

Orbital elements:  xkos465
   Perihelion 2024 Sep 9.68836 +/- 0.0186 TT = 16:31:14 (JD 2460563.18836)
Epoch 2024 Sep  8.0 TT = JDT 2460561.5   Earth MOID: 0.0699   Ma: 0.0332
M 359.52246833 +/- 0.008            (J2000 ecliptic)             AutoNEOCP
n   0.28283806 +/- 0.00212          Peri.  253.62209 +/- 0.09
a   2.29849807 +/- 0.0115           Node    93.61291 +/- 0.07
e   0.5350553 +/- 0.00222           Incl.    1.95688 +/- 0.007
P   3.48471                H 24.50  G  0.15   U  8.6
q 1.06867439 +/- 0.000228    Q 3.52832175 +/- 0.0227
From 16 observations 2024 Sept. 6-8; mean residual 0".42
Residuals in arcseconds: 
240906 L87  .19-  .41-    240907 M21  1.2-  .10+    240908 807  .19+  .04-    
240906 L87  .27-  .40+    240907 M21  .45-  .52+    240908 807  .00   .07-    
240906 L87  .40+  .24-    240907 L87  .58+  .61+    240908 F51  .03+  .19-    
240906 L87  .68+  .47-    240907 L87  .04-  1.2+    240908 F51  .07+  .00     
240907 L87  .15+  .36-    240907 L87  .09-  .15+    
240907 L87  .14+  .05+    240908 807  .11+  .03-    

Ephemerides (geocentric):
Date (UTC) HH   RA             Dec           delta  r     elong  mag " sig PA
---- --------  ------------   ------------  ------ ------ -----  --- --------
2024 09 08 19  23 59 57.829   -32 47 38.50  .07012 1.0687 150.2 20.1 .443  12
2024 09 08 20  00 00 28.936   -32 44 33.24  .07013 1.0687 150.2 20.1 .463  14
2024 09 08 21  00 00 59.997   -32 41 27.43  .07014 1.0687 150.2 20.1 .485  15
2024 09 08 22  00 01 31.010   -32 38 21.08  .07014 1.0687 150.2 20.1 .508  17
2024 09 08 23  00 02 01.976   -32 35 14.19  .07015 1.0687 150.2 20.1 .531  18
2024 09 09 00  00 02 32.893   -32 32 06.76  .07016 1.0687 150.2 20.1 .555  19
2024 09 09 01  00 03 03.762   -32 28 58.80  .07017 1.0687 150.2 20.1 .581  21
2024 09 09 02  00 03 34.583   -32 25 50.32  .07018 1.0687 150.2 20.1 .606  22
2024 09 09 03  00 04 05.354   -32 22 41.31  .07019 1.0687 150.2 20.1 .633  23
2024 09 09 04  00 04 36.076   -32 19 31.77  .07021 1.0687 150.2 20.1 .661  24
2024 09 09 05  00 05 06.748   -32 16 21.73  .07022 1.0687 150.2 20.1 .689  25
2024 09 09 06  00 05 37.371   -32 13 11.17  .07023 1.0687 150.2 20.1 .718  26
2024 09 09 07  00 06 07.944   -32 10 00.10  .07024 1.0687 150.2 20.1 .748  27
2024 09 09 08  00 06 38.466   -32 06 48.53  .07025 1.0687 150.2 20.1 .779  28
2024 09 09 09  00 07 08.937   -32 03 36.47  .07027 1.0687 150.2 20.1 .810  29
2024 09 09 10  00 07 39.358   -32 00 23.90  .07028 1.0687 150.2 20.1 .842  29
2024 09 09 11  00 08 09.728   -31 57 10.85  .07029 1.0687 150.1 20.1 .875  30
2024 09 09 12  00 08 40.046   -31 53 57.31  .07031 1.0687 150.1 20.1 .909  31
2024 09 09 13  00 09 10.312   -31 50 43.29  .07032 1.0687 150.1 20.1 .943  31
2024 09 09 14  00 09 40.526   -31 47 28.79  .07033 1.0687 150.1 20.1 .978  32
2024 09 09 15  00 10 10.688   -31 44 13.82  .07035 1.0687 150.1 20.1 1.01  33
2024 09 09 16  00 10 40.798   -31 40 58.38  .07036 1.0687 150.1 20.1 1.05  33
2024 09 09 17  00 11 10.855   -31 37 42.47  .07038 1.0687 150.1 20.1 1.09  34
2024 09 09 18  00 11 40.859   -31 34 26.11  .07040 1.0687 150.1 20.1 1.13  34
2024 09 09 19  00 12 10.810   -31 31 09.28  .07041 1.0687 150.1 20.1 1.16  35
2024 09 09 20  00 12 40.708   -31 27 52.01  .07043 1.0687 150.1 20.1 1.20  35
2024 09 09 21  00 13 10.552   -31 24 34.29  .07045 1.0687 150.1 20.1 1.24  36
2024 09 09 22  00 13 40.342   -31 21 16.12  .07046 1.0687 150.1 20.1 1.28  36
2024 09 09 23  00 14 10.078   -31 17 57.51  .07048 1.0687 150.1 20.1 1.33  36
2024 09 10 00  00 14 39.759   -31 14 38.47  .07050 1.0687 150.1 20.1 1.37  37
2024 09 10 01  00 15 09.386   -31 11 19.00  .07052 1.0687 150.1 20.1 1.41  37
2024 09 10 02  00 15 38.959   -31 07 59.11  .07054 1.0687 150.1 20.1 1.45  38
2024 09 10 03  00 16 08.476   -31 04 38.79  .07056 1.0687 150.1 20.1 1.50  38
2024 09 10 04  00 16 37.938   -31 01 18.06  .07057 1.0687 150.1 20.1 1.54  38
2024 09 10 05  00 17 07.345   -30 57 56.91  .07059 1.0687 150.1 20.1 1.59  38
2024 09 10 06  00 17 36.696   -30 54 35.35  .07061 1.0687 150.0 20.1 1.63  39
2024 09 10 07  00 18 05.991   -30 51 13.39  .07064 1.0687 150.0 20.1 1.68  39
2024 09 10 08  00 18 35.231   -30 47 51.03  .07066 1.0687 150.0 20.1 1.73  39
2024 09 10 09  00 19 04.414   -30 44 28.28  .07068 1.0687 150.0 20.1 1.77  40
2024 09 10 10  00 19 33.541   -30 41 05.13  .07070 1.0687 150.0 20.1 1.82  40
2024 09 10 11  00 20 02.611   -30 37 41.60  .07072 1.0687 150.0 20.1 1.87  40
2024 09 10 12  00 20 31.625   -30 34 17.69  .07074 1.0687 150.0 20.1 1.92  40
2024 09 10 13  00 21 00.581   -30 30 53.40  .07076 1.0687 150.0 20.1 1.97  40
2024 09 10 14  00 21 29.480   -30 27 28.73  .07079 1.0687 150.0 20.1 2.02  41
2024 09 10 15  00 21 58.323   -30 24 03.70  .07081 1.0687 150.0 20.1 2.07  41
2024 09 10 16  00 22 27.107   -30 20 38.30  .07083 1.0687 150.0 20.1 2.13  41
2024 09 10 17  00 22 55.834   -30 17 12.54  .07086 1.0687 150.0 20.1 2.18  41
2024 09 10 18  00 23 24.504   -30 13 46.43  .07088 1.0688 150.0 20.1 2.23  41